This is the latest recevied weather packets stored in our database for station/object EA7OC-10. If no packets are shown the sender has not sent any weather packets the latest 10 day(s).
| Time | Temp. | Humidity | Pressure | Rain* | Wind** | Luminosity | Snow |
|---|---|---|---|---|---|---|---|
| 1778146185 | 28.33° C | 28% | 1012.2 hPa | - | - | - | - |
| 1778145285 | 30° C | 27% | 1012.3 hPa | - | - | - | - |
| 1778144385 | 30.56° C | 30% | 1012.4 hPa | - | - | - | - |
| 1778143484 | 26.67° C | 32% | 1012.4 hPa | - | - | - | - |
| 1778142584 | 21.67° C | 28% | 1012.3 hPa | - | - | - | - |
| 1778141684 | 22.78° C | 27% | 1012.3 hPa | - | - | - | - |
| 1778140784 | 24.44° C | 28% | 1012.2 hPa | - | - | - | - |
| 1778139884 | 23.89° C | 28% | 1012.2 hPa | - | - | - | - |
| 1778138984 | 23.33° C | 27% | 1012.1 hPa | - | - | - | - |
| 1778138083 | 25° C | 27% | 1012 hPa | - | - | - | - |
| 1778136325 | 25° C | 30% | 1012 hPa | - | - | - | - |
| 1778135424 | 23.33° C | 31% | 1011.8 hPa | - | - | - | - |
| 1778134524 | 20.56° C | 31% | 1011.5 hPa | - | - | - | - |
| 1778133624 | 17.22° C | 29% | 1011.4 hPa | - | - | - | - |
| 1778132724 | 14.44° C | 29% | 1011.1 hPa | - | - | - | - |
| 1778131824 | 13.89° C | 28% | 1010.9 hPa | - | - | - | - |
| 1778130922 | 13.89° C | 28% | 1010.8 hPa | - | - | - | - |
| 1778130022 | 13.89° C | 28% | 1010.7 hPa | - | - | - | - |
| 1778129118 | 13.89° C | 28% | 1010.8 hPa | - | - | - | - |
| 1778128217 | 13.89° C | 28% | 1010.7 hPa | - | - | - | - |
| 1778127317 | 13.89° C | 28% | 1010.6 hPa | - | - | - | - |
| 1778126415 | 13.89° C | 28% | 1010.5 hPa | - | - | - | - |
| 1778125515 | 13.89° C | 28% | 1010.3 hPa | - | - | - | - |
| 1778124614 | 13.89° C | 28% | 1010.4 hPa | - | - | - | - |
| 1778123714 | 14.44° C | 27% | 1010.1 hPa | - | - | - | - |
* Rain since midnight (hover to see other rain measurements)
** Current wind speed in m/s (hover to see current wind gust speed)